Location: Bats
(43.6587°N, 0.4584°W)
Time: 15:39:38
(UTC+00:00)

Cosmos 2218 Rocket - Pass Details

Date: 12 January 2026
Orbit: 955 x 1005 km, 82.9° (Epoch: 17 February)

Event Time Altitude Azimuth Distance (km) Brightness Sun altitude
Rises 17:44:27 0° 355° (N) 3,742 6.9 -10.3°
Reaches altitude 10° 17:47:04 10° 360° (N) 2,790 6.2 -10.7°
Maximum altitude 17:53:22 56° 78° (ENE) 1,187 4.1 -11.8°
Drops below altitude 10° 17:59:36 10° 156° (SSE) 2,764 6.3 -12.8°
Sets 18:02:10 0° 160° (SSE) 3,704 7.0 -13.3°
